| time (UTC) | temp F | wind direction | speed MPH | gust MPH | rain 1hr in | rain 24hr in | rain mn in | humidity % | barometer mb |
| 20260902022331 | 71 | 233 | 0.0 | 1.0 | 0.00 | 0.48 | 0.48 | 93 | 1016.7 |
| 20260902021819 | 71 | 233 | 0.0 | 1.0 | 0.00 | 0.48 | 0.48 | 93 | 1016.9 |
| 20260902021810 | 71 | 233 | 0.0 | 0.0 | 0.00 | 0.48 | 0.48 | 93 | 1016.8 |
| 20260902020800 | 71 | 235 | 0.0 | 1.0 | 0.00 | 0.48 | 0.48 | 93 | 1016.4 |
| 20260902020527 | 71 | 236 | 0.0 | 1.0 | 0.00 | 0.48 | 0.48 | 93 | 1016.4 |
| 20260902015736 | 71 | 236 | 0.0 | 1.0 | 0.00 | 0.48 | 0.48 | 93 | 1016.1 |
| 20260902015439 | 70 | 236 | 0.0 | 2.0 | 0.02 | 0.48 | 0.48 | 93 | 1016.0 |
| 20260902014655 | 70 | 345 | 0.0 | 1.0 | 0.09 | 0.48 | 0.48 | 92 | 1016.0 |
| 20260902014350 | 70 | 345 | 0.0 | 1.0 | 0.29 | 0.48 | 0.48 | 92 | 1016.0 |
| 20260902013608 | 70 | 285 | 0.0 | 1.0 | 0.36 | 0.48 | 0.48 | 92 | 1016.0 |
| 20260902013045 | 70 | 285 | 0.0 | 1.0 | 0.45 | 0.48 | 0.48 | 92 | 1016.0 |
| 20260902012521 | 70 | 123 | 0.0 | 2.0 | 0.47 | 0.48 | 0.48 | 91 | 1015.8 |
| 20260902012006 | 70 | 213 | 0.0 | 2.0 | 0.48 | 0.48 | 0.48 | 91 | 1015.9 |
| 20260902011728 | 70 | 166 | 0.0 | 0.0 | 0.48 | 0.48 | 0.48 | 91 | 1015.0 |
| 20260902011001 | 71 | 166 | 0.0 | 3.0 | 0.48 | 0.48 | 0.48 | 90 | 1014.8 |
| 20260902010455 | 71 | 293 | 2.0 | 7.0 | 0.48 | 0.48 | 0.48 | 89 | 1015.4 |
| 20260902005934 | 71 | 301 | 2.0 | 7.0 | 0.48 | 0.48 | 0.48 | 88 | 1015.9 |
| 20260902005413 | 72 | 331 | 3.0 | 14.0 | 0.48 | 0.48 | 0.48 | 89 | 1015.4 |
| 20260902004913 | 73 | 278 | 6.0 | 25.0 | 0.42 | 0.42 | 0.43 | 89 | 1014.8 |
| 20260902004639 | 73 | 288 | 8.0 | 25.0 | 0.32 | 0.32 | 0.34 | 87 | 1016.0 |
| 20260902003849 | 75 | 311 | 5.0 | 20.0 | 0.15 | 0.15 | 0.15 | 86 | 1016.6 |
| 20260902003324 | 78 | 288 | 3.0 | 20.0 | 0.06 | 0.06 | 0.07 | 80 | 1016.6 |
| 20260902003026 | 80 | 345 | 2.0 | 8.0 | 0.02 | 0.02 | 0.03 | 72 | 1014.0 |
| 20260902002236 | 82 | 281 | 1.0 | 7.0 | 0.00 | 0.00 | 0.00 | 71 | 1014.0 |
| 20260902001732 | 84 | 129 | 1.0 | 6.0 | 0.00 | 0.00 | 0.00 | 73 | 1014.2 |
| 20260902001229 | 85 | 311 | 1.0 | 6.0 | 0.00 | 0.00 | 0.00 | 74 | 1014.4 |
| 20260902000718 | 86 | 315 | 0.0 | 5.0 | 0.00 | 0.00 | 0.00 | 75 | 1014.6 |
| 20260902000438 | 86 | 296 | 0.0 | 1.0 | 0.00 | 0.00 | 0.00 | 74 | 1014.1 |
| 20260901235945 | 86 | 213 | 0.0 | 0.0 | 0.00 | 0.00 | 0.00 | 74 | 1014.0 |
| 20260901235148 | 86 | 212 | 0.0 | 0.0 | 0.00 | 0.00 | 0.00 | 74 | 1013.5 |
| 20260901234619 | 87 | 212 | 0.0 | 0.0 | 0.00 | 0.00 | 0.00 | 74 | 1013.3 |
| 20260901234341 | 87 | 212 | 0.0 | 0.0 | 0.00 | 0.00 | 0.00 | 73 | 1013.2 |
| 20260901233611 | 87 | 212 | 0.0 | 0.0 | 0.00 | 0.00 | 0.00 | 73 | 1013.4 |
| 20260901233046 | 87 | 212 | 0.0 | 0.0 | 0.00 | 0.00 | 0.00 | 73 | 1013.5 |
| 20260901232531 | 87 | 212 | 0.0 | 0.0 | 0.00 | 0.00 | 0.00 | 72 | 1013.8 |
| 20260901232031 | 88 | 212 | 0.0 | 0.0 | 0.00 | 0.00 | 0.00 | 72 | 1013.8 |
| 20260901231534 | 88 | 212 | 0.0 | 0.0 | 0.00 | 0.00 | 0.00 | 71 | 1014.1 |
| 20260901231033 | 88 | 212 | 0.0 | 0.0 | 0.00 | 0.00 | 0.00 | 71 | 1014.0 |
| 20260901230528 | 88 | 212 | 0.0 | 0.0 | 0.00 | 0.00 | 0.00 | 71 | 1013.9 |
| 20260901230024 | 89 | 212 | 0.0 | 0.0 | 0.00 | 0.00 | 0.00 | 70 | 1014.0 |
| 20260901225520 | 89 | 212 | 0.0 | 1.0 | 0.00 | 0.00 | 0.00 | 70 | 1014.1 |
| 20260901224951 | 89 | 255 | 0.0 | 1.0 | 0.00 | 0.00 | 0.00 | 69 | 1013.9 |
| 20260901224451 | 89 | 283 | 0.0 | 1.0 | 0.00 | 0.00 | 0.00 | 70 | 1014.0 |
| 20260901223924 | 89 | 212 | 0.0 | 1.0 | 0.00 | 0.00 | 0.00 | 69 | 1014.1 |
| 20260901223357 | 90 | 304 | 0.0 | 1.0 | 0.00 | 0.00 | 0.00 | 69 | 1014.1 |
| 20260901222853 | 90 | 300 | 0.0 | 1.0 | 0.00 | 0.00 | 0.00 | 69 | 1014.0 |
| 20260901222334 | 90 | 269 | 0.0 | 3.0 | 0.00 | 0.00 | 0.00 | 69 | 1013.9 |
| 20260901222027 | 90 | 310 | 0.0 | 3.0 | 0.00 | 0.00 | 0.00 | 69 | 1014.0 |
| 20260901221229 | 90 | 311 | 0.0 | 4.0 | 0.00 | 0.00 | 0.00 | 68 | 1013.9 |
| 20260901220728 | 90 | 276 | 0.0 | 4.0 | 0.00 | 0.00 | 0.00 | 67 | 1013.8 |
| 20260901220159 | 90 | 302 | 0.0 | 1.0 | 0.00 | 0.00 | 0.00 | 68 | 1013.8 |
| 20260901215919 | 90 | 301 | 0.0 | 1.0 | 0.00 | 0.00 | 0.00 | 68 | 1013.9 |
| 20260901215131 | 90 | 220 | 0.0 | 1.0 | 0.00 | 0.00 | 0.00 | 67 | 1014.2 |
| 20260901214629 | 91 | 304 | 1.0 | 5.0 | 0.00 | 0.00 | 0.00 | 67 | 1014.1 |
| 20260901214102 | 91 | 179 | 1.0 | 5.0 | 0.00 | 0.00 | 0.00 | 66 | 1014.2 |
| 20260901214025 | 91 | 1 | 0.0 | 2.0 | 0.00 | 0.00 | 0.00 | 66 | 1014.2 |
| 20260901213255 | 91 | 268 | 0.0 | 4.0 | 0.00 | 0.00 | 0.00 | 66 | 1014.2 |
| 20260901212511 | 91 | 252 | 1.0 | 4.0 | 0.00 | 0.00 | 0.00 | 66 | 1014.3 |
| 20260901211959 | 91 | 255 | 0.0 | 3.0 | 0.00 | 0.00 | 0.00 | 66 | 1014.2 |
| 20260901211455 | 91 | 60 | 1.0 | 5.0 | 0.00 | 0.00 | 0.00 | 66 | 1014.3 |
| 20260901211202 | 91 | 285 | 1.0 | 5.0 | 0.00 | 0.00 | 0.00 | 66 | 1014.3 |
| 20260901210407 | 91 | 188 | 0.0 | 3.0 | 0.00 | 0.00 | 0.00 | 66 | 1014.2 |
| 20260901205836 | 91 | 160 | 1.0 | 4.0 | 0.00 | 0.00 | 0.00 | 65 | 1014.3 |
| 20260901205335 | 91 | 257 | 0.0 | 4.0 | 0.00 | 0.00 | 0.00 | 65 | 1014.4 |
| 20260901204805 | 91 | 321 | 0.0 | 3.0 | 0.00 | 0.00 | 0.00 | 66 | 1014.5 |
| 20260901204510 | 91 | 5 | 0.0 | 3.0 | 0.00 | 0.00 | 0.00 | 66 | 1014.4 |
| 20260901203716 | 91 | 244 | 0.0 | 3.0 | 0.00 | 0.00 | 0.00 | 64 | 1014.5 |
| 20260901203147 | 91 | 248 | 1.0 | 7.0 | 0.00 | 0.00 | 0.00 | 64 | 1014.7 |
| 20260901202646 | 91 | 20 | 1.0 | 7.0 | 0.00 | 0.00 | 0.00 | 64 | 1014.7 |
| 20260901202119 | 91 | 233 | 1.0 | 6.0 | 0.00 | 0.00 | 0.00 | 64 | 1014.7 |
| 20260901201616 | 91 | 298 | 1.0 | 6.0 | 0.00 | 0.00 | 0.00 | 65 | 1014.7 |
| 20260901201048 | 91 | 306 | 1.0 | 6.0 | 0.00 | 0.00 | 0.00 | 64 | 1014.7 |
| 20260901200546 | 91 | 345 | 1.0 | 6.0 | 0.00 | 0.00 | 0.00 | 64 | 1014.6 |
| 20260901200033 | 91 | 155 | 1.0 | 5.0 | 0.00 | 0.00 | 0.00 | 64 | 1014.6 |
| 20260901195548 | 91 | 300 | 1.0 | 4.0 | 0.00 | 0.00 | 0.00 | 63 | 1014.6 |
| 20260901195008 | 91 | 293 | 1.0 | 3.0 | 0.00 | 0.00 | 0.00 | 63 | 1014.8 |
| 20260901194733 | 91 | 251 | 1.0 | 4.0 | 0.00 | 0.00 | 0.00 | 64 | 1014.9 |
| 20260901194003 | 91 | 217 | 1.0 | 5.0 | 0.00 | 0.00 | 0.00 | 65 | 1015.0 |
| 20260901193438 | 91 | 314 | 1.0 | 5.0 | 0.00 | 0.00 | 0.00 | 66 | 1015.1 |
| 20260901192912 | 90 | 255 | 1.0 | 4.0 | 0.00 | 0.00 | 0.00 | 67 | 1015.1 |
| 20260901192343 | 90 | 86 | 1.0 | 3.0 | 0.00 | 0.00 | 0.00 | 68 | 1015.2 |
| 20260901191843 | 89 | 287 | 2.0 | 6.0 | 0.00 | 0.00 | 0.00 | 67 | 1015.2 |
| 20260901191313 | 89 | 63 | 2.0 | 6.0 | 0.00 | 0.01 | 0.00 | 67 | 1015.2 |
| 20260901190815 | 90 | 198 | 1.0 | 5.0 | 0.00 | 0.01 | 0.00 | 65 | 1015.2 |
| 20260901190243 | 90 | 169 | 1.0 | 5.0 | 0.00 | 0.01 | 0.00 | 68 | 1015.4 |
| 20260901190003 | 90 | 236 | 1.0 | 5.0 | 0.00 | 0.01 | 0.00 | 67 | 1015.3 |
| 20260901185219 | 89 | 167 | 1.0 | 3.0 | 0.00 | 0.01 | 0.00 | 68 | 1015.3 |
| 20260901184650 | 90 | 228 | 1.0 | 6.0 | 0.00 | 0.01 | 0.00 | 67 | 1015.5 |
| 20260901184414 | 90 | 174 | 2.0 | 6.0 | 0.00 | 0.01 | 0.00 | 67 | 1015.5 |
| 20260901183621 | 89 | 174 | 2.0 | 9.0 | 0.00 | 0.01 | 0.00 | 67 | 1015.6 |
| 20260901183120 | 89 | 110 | 2.0 | 9.0 | 0.00 | 0.01 | 0.00 | 68 | 1015.5 |
| 20260901182621 | 89 | 55 | 2.0 | 6.0 | 0.00 | 0.01 | 0.00 | 68 | 1015.5 |
| 20260901182105 | 89 | 79 | 2.0 | 6.0 | 0.00 | 0.01 | 0.00 | 68 | 1015.5 |
| 20260901181602 | 90 | 173 | 1.0 | 5.0 | 0.00 | 0.01 | 0.00 | 66 | 1015.5 |
| 20260901181307 | 90 | 315 | 1.0 | 4.0 | 0.00 | 0.01 | 0.00 | 65 | 1015.7 |
| 20260901180808 | 89 | 355 | 1.0 | 5.0 | 0.00 | 0.01 | 0.00 | 66 | 1015.7 |
| 20260901180032 | 89 | 4 | 1.0 | 5.0 | 0.00 | 0.01 | 0.00 | 65 | 1015.6 |
| 20260901175544 | 89 | 293 | 0.0 | 3.0 | 0.00 | 0.01 | 0.00 | 66 | 1015.7 |
| 20260901175258 | 89 | 285 | 1.0 | 3.0 | 0.00 | 0.01 | 0.00 | 66 | 1015.8 |
| 20260901174503 | 88 | 217 | 1.0 | 5.0 | 0.00 | 0.01 | 0.00 | 69 | 1015.8 |
| 20260901174000 | 88 | 329 | 0.0 | 5.0 | 0.00 | 0.01 | 0.00 | 70 | 1015.8 |
| 20260901173455 | 88 | 252 | 0.0 | 3.0 | 0.00 | 0.01 | 0.00 | 70 | 1015.9 |
| 20260901172957 | 87 | 181 | 0.0 | 3.0 | 0.00 | 0.01 | 0.00 | 72 | 1016.0 |
| 20260901172920 | 87 | 193 | 0.0 | 3.0 | 0.00 | 0.01 | 0.00 | 73 | 1016.1 |
| 20260901171935 | 86 | 302 | 0.0 | 2.0 | 0.00 | 0.01 | 0.00 | 76 | 1016.1 |
| 20260901171418 | 85 | 182 | 1.0 | 2.0 | 0.00 | 0.01 | 0.00 | 76 | 1016.0 |
| 20260901170902 | 85 | 151 | 0.0 | 2.0 | 0.00 | 0.01 | 0.00 | 76 | 1016.1 |
| 20260901170359 | 85 | 200 | 0.0 | 2.0 | 0.00 | 0.01 | 0.00 | 76 | 1016.1 |
| 20260901165837 | 85 | 131 | 0.0 | 1.0 | 0.00 | 0.01 | 0.00 | 76 | 1016.3 |
| 20260901165558 | 85 | 283 | 0.0 | 0.0 | 0.00 | 0.01 | 0.00 | 75 | 1016.3 |
| 20260901164814 | 85 | 215 | 0.0 | 0.0 | 0.00 | 0.01 | 0.00 | 79 | 1016.3 |
| 20260901164249 | 85 | 215 | 0.0 | 0.0 | 0.00 | 0.01 | 0.00 | 79 | 1016.4 |
| 20260901163723 | 85 | 215 | 0.0 | 1.0 | 0.00 | 0.01 | 0.00 | 78 | 1016.4 |
| 20260901163403 | 84 | 218 | 0.0 | 2.0 | 0.00 | 0.01 | 0.00 | 79 | 1016.6 |
| 20260901163356 | 84 | 215 | 0.0 | 1.0 | 0.00 | 0.01 | 0.00 | 79 | 1016.5 |
| 20260901162411 | 83 | 193 | 0.0 | 2.0 | 0.00 | 0.01 | 0.00 | 79 | 1016.6 |
| 20260901161650 | 83 | 174 | 0.0 | 2.0 | 0.00 | 0.01 | 0.00 | 80 | 1016.6 |
| 20260901161125 | 83 | 103 | 0.0 | 2.0 | 0.00 | 0.01 | 0.00 | 80 | 1016.6 |
| 20260901160820 | 83 | 131 | 0.0 | 2.0 | 0.00 | 0.01 | 0.00 | 79 | 1016.5 |
| 20260901160104 | 83 | 211 | 1.0 | 4.0 | 0.00 | 0.01 | 0.00 | 79 | 1016.6 |
| 20260901155819 | 83 | 203 | 0.0 | 4.0 | 0.00 | 0.01 | 0.00 | 78 | 1016.6 |
| 20260901155023 | 83 | 115 | 1.0 | 3.0 | 0.00 | 0.01 | 0.00 | 77 | 1016.6 |
| 20260901154511 | 84 | 223 | 1.0 | 6.0 | 0.00 | 0.01 | 0.00 | 76 | 1016.6 |
| 20260901154012 | 85 | 233 | 2.0 | 6.0 | 0.00 | 0.01 | 0.00 | 75 | 1016.6 |
| 20260901153445 | 85 | 115 | 1.0 | 4.0 | 0.00 | 0.01 | 0.00 | 73 | 1016.5 |
| 20260901152922 | 86 | 161 | 1.0 | 5.0 | 0.00 | 0.01 | 0.00 | 73 | 1016.7 |
| 20260901152353 | 86 | 180 | 1.0 | 5.0 | 0.00 | 0.01 | 0.00 | 72 | 1016.9 |
| 20260901151849 | 86 | 349 | 0.0 | 3.0 | 0.00 | 0.01 | 0.00 | 73 | 1017.0 |
| 20260901151325 | 86 | 30 | 0.0 | 3.0 | 0.00 | 0.01 | 0.00 | 73 | 1017.1 |
| 20260901150756 | 85 | 230 | 0.0 | 3.0 | 0.00 | 0.01 | 0.00 | 74 | 1017.0 |
| 20260901150255 | 85 | 282 | 0.0 | 3.0 | 0.00 | 0.01 | 0.00 | 74 | 1017.0 |
| 20260901145726 | 84 | 223 | 0.0 | 3.0 | 0.00 | 0.01 | 0.00 | 77 | 1017.2 |
| 20260901145447 | 83 | 286 | 1.0 | 3.0 | 0.00 | 0.01 | 0.00 | 77 | 1017.1 |
| 20260901144658 | 83 | 309 | 1.0 | 3.0 | 0.00 | 0.01 | 0.00 | 78 | 1017.2 |
| 20260901144158 | 83 | 245 | 0.0 | 3.0 | 0.00 | 0.01 | 0.00 | 78 | 1017.1 |
| 20260901143626 | 82 | 317 | 1.0 | 4.0 | 0.00 | 0.01 | 0.00 | 80 | 1017.1 |
| 20260901143124 | 82 | 285 | 1.0 | 4.0 | 0.00 | 0.01 | 0.00 | 80 | 1017.2 |
| 20260901142556 | 81 | 288 | 1.0 | 5.0 | 0.00 | 0.01 | 0.00 | 82 | 1017.1 |
| 20260901142055 | 80 | 291 | 0.0 | 5.0 | 0.00 | 0.01 | 0.00 | 83 | 1017.2 |
| 20260901141527 | 80 | 309 | 0.0 | 1.0 | 0.00 | 0.01 | 0.00 | 84 | 1017.0 |
| 20260901141253 | 80 | 295 | 0.0 | 1.0 | 0.00 | 0.01 | 0.00 | 84 | 1017.0 |
| 20260901140725 | 80 | 288 | 0.0 | 2.0 | 0.00 | 0.01 | 0.00 | 84 | 1017.0 |
| 20260901135930 | 80 | 279 | 0.0 | 1.0 | 0.00 | 0.01 | 0.00 | 84 | 1016.8 |
| 20260901135428 | 80 | 279 | 0.0 | 1.0 | 0.00 | 0.01 | 0.00 | 83 | 1016.9 |
| 20260901135131 | 80 | 225 | 0.0 | 2.0 | 0.00 | 0.01 | 0.00 | 84 | 1016.8 |
| 20260901134346 | 80 | 220 | 0.0 | 2.0 | 0.00 | 0.01 | 0.00 | 83 | 1016.7 |
| 20260901134331 | 80 | 167 | 0.0 | 2.0 | 0.00 | 0.01 | 0.00 | 82 | 1016.8 |
| 20260901133344 | 80 | 209 | 0.0 | 0.0 | 0.00 | 0.01 | 0.00 | 83 | 1016.9 |
| 20260901132844 | 80 | 182 | 0.0 | 2.0 | 0.00 | 0.01 | 0.00 | 82 | 1017.0 |
| 20260901132334 | 80 | 226 | 0.0 | 2.0 | 0.00 | 0.01 | 0.00 | 83 | 1016.9 |
| 20260901131809 | 80 | 235 | 0.0 | 2.0 | 0.00 | 0.01 | 0.00 | 83 | 1017.0 |
| 20260901131310 | 80 | 219 | 0.0 | 2.0 | 0.00 | 0.01 | 0.00 | 83 | 1017.1 |
| 20260901130742 | 80 | 305 | 0.0 | 1.0 | 0.00 | 0.01 | 0.00 | 84 | 1017.2 |
| 20260901130240 | 80 | 250 | 0.0 | 3.0 | 0.00 | 0.01 | 0.00 | 84 | 1017.3 |
| 20260901125938 | 80 | 143 | 0.0 | 3.0 | 0.00 | 0.01 | 0.00 | 83 | 1017.3 |
| 20260901125144 | 80 | 212 | 0.0 | 2.0 | 0.00 | 0.01 | 0.00 | 84 | 1017.4 |
| 20260901124642 | 80 | 216 | 1.0 | 4.0 | 0.00 | 0.01 | 0.00 | 84 | 1017.3 |
| 20260901124115 | 80 | 233 | 1.0 | 4.0 | 0.00 | 0.01 | 0.00 | 83 | 1017.3 |
| 20260901123816 | 80 | 183 | 0.0 | 0.0 | 0.00 | 0.01 | 0.00 | 84 | 1017.4 |
| 20260901123044 | 79 | 200 | 0.0 | 2.0 | 0.00 | 0.01 | 0.00 | 86 | 1017.4 |
| 20260901122542 | 78 | 172 | 0.0 | 2.0 | 0.00 | 0.01 | 0.00 | 88 | 1017.3 |
| 20260901122039 | 77 | 181 | 0.0 | 2.0 | 0.00 | 0.01 | 0.00 | 88 | 1017.3 |
| 20260901121537 | 76 | 240 | 0.0 | 2.0 | 0.00 | 0.01 | 0.00 | 89 | 1017.4 |
| 20260901121520 | 76 | 168 | 0.0 | 2.0 | 0.00 | 0.01 | 0.00 | 91 | 1017.4 |
| 20260901120529 | 75 | 209 | 0.0 | 0.0 | 0.00 | 0.01 | 0.00 | 92 | 1017.5 |
| 20260901120024 | 74 | 209 | 0.0 | 0.0 | 0.00 | 0.01 | 0.00 | 92 | 1017.7 |
| 20260901115525 | 74 | 209 | 0.0 | 0.0 | 0.00 | 0.01 | 0.00 | 93 | 1017.7 |
| 20260901114957 | 73 | 209 | 0.0 | 0.0 | 0.00 | 0.01 | 0.00 | 93 | 1017.7 |
| 20260901114445 | 73 | 209 | 0.0 | 0.0 | 0.00 | 0.01 | 0.00 | 93 | 1017.6 |
| 20260901113946 | 73 | 209 | 0.0 | 0.0 | 0.00 | 0.01 | 0.00 | 93 | 1017.5 |
| 20260901113422 | 73 | 203 | 0.0 | 0.0 | 0.00 | 0.01 | 0.00 | 93 | 1017.5 |
| 20260901113114 | 72 | 196 | 0.0 | 0.0 | 0.00 | 0.01 | 0.00 | 93 | 1017.5 |
| 20260901112352 | 72 | 197 | 0.0 | 0.0 | 0.00 | 0.01 | 0.00 | 93 | 1017.4 |
| 20260901112052 | 72 | 197 | 0.0 | 0.0 | 0.00 | 0.01 | 0.00 | 93 | 1017.4 |
| 20260901111322 | 72 | 196 | 0.0 | 0.0 | 0.00 | 0.01 | 0.00 | 93 | 1017.5 |
| 20260901110821 | 72 | 196 | 0.0 | 0.0 | 0.00 | 0.01 | 0.00 | 93 | 1017.5 |
| 20260901110310 | 71 | 197 | 0.0 | 0.0 | 0.00 | 0.01 | 0.00 | 92 | 1017.6 |
| 20260901105810 | 71 | 196 | 0.0 | 0.0 | 0.00 | 0.01 | 0.00 | 92 | 1017.4 |
| 20260901105249 | 72 | 197 | 0.0 | 0.0 | 0.00 | 0.01 | 0.00 | 92 | 1017.4 |
| 20260901105015 | 72 | 197 | 0.0 | 0.0 | 0.00 | 0.01 | 0.00 | 92 | 1017.4 |
| 20260901104247 | 72 | 196 | 0.0 | 0.0 | 0.00 | 0.01 | 0.00 | 92 | 1017.5 |
| 20260901103723 | 72 | 197 | 0.0 | 0.0 | 0.00 | 0.01 | 0.00 | 92 | 1017.4 |
| 20260901103225 | 72 | 197 | 0.0 | 0.0 | 0.00 | 0.01 | 0.00 | 92 | 1017.4 |
| 20260901102703 | 72 | 196 | 0.0 | 0.0 | 0.00 | 0.01 | 0.00 | 92 | 1017.3 |
| 20260901102144 | 72 | 196 | 0.0 | 0.0 | 0.00 | 0.01 | 0.00 | 91 | 1017.3 |
| 20260901101641 | 72 | 197 | 0.0 | 0.0 | 0.00 | 0.01 | 0.00 | 91 | 1017.3 |
| 20260901101121 | 72 | 197 | 0.0 | 0.0 | 0.00 | 0.01 | 0.00 | 91 | 1017.4 |
| 20260901100559 | 73 | 196 | 0.0 | 0.0 | 0.00 | 0.01 | 0.00 | 91 | 1017.4 |
| 20260901100533 | 73 | 196 | 0.0 | 0.0 | 0.00 | 0.01 | 0.00 | 91 | 1017.2 |
| 20260901095533 | 73 | 197 | 0.0 | 0.0 | 0.00 | 0.01 | 0.00 | 91 | 1017.2 |
| 20260901094949 | 73 | 197 | 0.0 | 0.0 | 0.00 | 0.01 | 0.00 | 91 | 1017.3 |
| 20260901094435 | 73 | 197 | 0.0 | 0.0 | 0.00 | 0.01 | 0.00 | 91 | 1017.3 |
| 20260901093937 | 73 | 212 | 0.0 | 0.0 | 0.00 | 0.01 | 0.00 | 91 | 1017.2 |
| 20260901093429 | 73 | 212 | 0.0 | 0.0 | 0.00 | 0.01 | 0.00 | 91 | 1017.1 |
| 20260901092935 | 73 | 212 | 0.0 | 0.0 | 0.00 | 0.01 | 0.00 | 91 | 1017.2 |
| 20260901092412 | 73 | 212 | 0.0 | 0.0 | 0.00 | 0.01 | 0.00 | 91 | 1017.2 |
| 20260901092130 | 73 | 212 | 0.0 | 0.0 | 0.00 | 0.01 | 0.00 | 91 | 1017.4 |
| 20260901091408 | 73 | 212 | 0.0 | 0.0 | 0.00 | 0.01 | 0.00 | 91 | 1017.3 |
| 20260901091113 | 73 | 212 | 0.0 | 0.0 | 0.00 | 0.01 | 0.00 | 91 | 1017.5 |
| 20260901090322 | 73 | 212 | 0.0 | 0.0 | 0.00 | 0.01 | 0.00 | 91 | 1017.5 |
| 20260901085755 | 73 | 212 | 0.0 | 0.0 | 0.00 | 0.01 | 0.00 | 91 | 1017.6 |
| 20260901085255 | 73 | 212 | 0.0 | 0.0 | 0.00 | 0.01 | 0.00 | 91 | 1017.7 |
| 20260901084752 | 73 | 212 | 0.0 | 0.0 | 0.00 | 0.01 | 0.00 | 91 | 1017.7 |
| 20260901084228 | 73 | 212 | 0.0 | 0.0 | 0.00 | 0.01 | 0.00 | 90 | 1017.6 |
| 20260901083730 | 73 | 212 | 0.0 | 0.0 | 0.00 | 0.01 | 0.00 | 90 | 1017.6 |
| 20260901083449 | 73 | 212 | 0.0 | 0.0 | 0.00 | 0.01 | 0.00 | 90 | 1017.5 |
| 20260901082707 | 73 | 212 | 0.0 | 0.0 | 0.00 | 0.01 | 0.00 | 90 | 1017.4 |
| 20260901082210 | 73 | 174 | 0.0 | 0.0 | 0.00 | 0.01 | 0.00 | 90 | 1017.7 |
| 20260901081658 | 73 | 174 | 0.0 | 0.0 | 0.00 | 0.01 | 0.00 | 90 | 1017.8 |
| 20260901081202 | 73 | 174 | 0.0 | 0.0 | 0.00 | 0.01 | 0.00 | 90 | 1017.7 |
| 20260901080639 | 73 | 174 | 0.0 | 0.0 | 0.00 | 0.01 | 0.00 | 90 | 1017.5 |
| 20260901080114 | 73 | 226 | 0.0 | 0.0 | 0.00 | 0.01 | 0.00 | 90 | 1017.5 |
| 20260901075609 | 73 | 226 | 0.0 | 0.0 | 0.00 | 0.01 | 0.00 | 90 | 1017.6 |
| 20260901075328 | 73 | 226 | 0.0 | 2.0 | 0.00 | 0.01 | 0.00 | 90 | 1017.6 |
| 20260901074806 | 74 | 226 | 0.0 | 2.0 | 0.00 | 0.01 | 0.00 | 90 | 1017.6 |
| 20260901074239 | 74 | 219 | 0.0 | 1.0 | 0.00 | 0.01 | 0.00 | 90 | 1017.5 |
| 20260901073733 | 74 | 215 | 0.0 | 1.0 | 0.00 | 0.01 | 0.00 | 89 | 1017.5 |
| 20260901073242 | 74 | 215 | 0.0 | 1.0 | 0.00 | 0.01 | 0.00 | 89 | 1017.6 |
| 20260901072514 | 74 | 215 | 0.0 | 1.0 | 0.00 | 0.01 | 0.00 | 89 | 1017.6 |
| 20260901071957 | 74 | 221 | 0.0 | 1.0 | 0.00 | 0.01 | 0.00 | 89 | 1017.6 |
| 20260901071456 | 74 | 223 | 0.0 | 1.0 | 0.00 | 0.01 | 0.00 | 90 | 1017.7 |
| 20260901070953 | 74 | 210 | 0.0 | 1.0 | 0.00 | 0.01 | 0.00 | 90 | 1017.6 |
| 20260901070655 | 74 | 208 | 0.0 | 0.0 | 0.00 | 0.01 | 0.00 | 90 | 1017.7 |
| 20260901065925 | 74 | 208 | 0.0 | 0.0 | 0.00 | 0.01 | 0.00 | 90 | 1017.7 |
| 20260901065357 | 74 | 208 | 0.0 | 2.0 | 0.00 | 0.01 | 0.00 | 90 | 1017.8 |
| 20260901064852 | 74 | 208 | 0.0 | 2.0 | 0.00 | 0.01 | 0.00 | 90 | 1017.9 |
| 20260901064328 | 74 | 214 | 0.0 | 1.0 | 0.00 | 0.01 | 0.00 | 90 | 1017.9 |
| 20260901063824 | 74 | 234 | 0.0 | 1.0 | 0.00 | 0.01 | 0.00 | 90 | 1018.0 |
| 20260901063323 | 74 | 234 | 0.0 | 1.0 | 0.00 | 0.01 | 0.00 | 90 | 1018.1 |
| 20260901062753 | 74 | 234 | 0.0 | 1.0 | 0.00 | 0.01 | 0.00 | 90 | 1018.2 |
| 20260901062519 | 74 | 234 | 0.0 | 1.0 | 0.00 | 0.01 | 0.00 | 90 | 1018.2 |
| 20260901061727 | 74 | 234 | 0.0 | 1.0 | 0.00 | 0.01 | 0.00 | 90 | 1018.1 |
| 20260901061424 | 74 | 218 | 0.0 | 1.0 | 0.00 | 0.01 | 0.00 | 90 | 1018.2 |
| 20260901060634 | 74 | 169 | 0.0 | 1.0 | 0.00 | 0.01 | 0.00 | 90 | 1018.2 |
| 20260901060107 | 74 | 218 | 0.0 | 1.0 | 0.00 | 0.02 | 0.00 | 90 | 1018.2 |
| 20260901055828 | 74 | 158 | 0.0 | 1.0 | 0.00 | 0.02 | 0.00 | 91 | 1018.2 |
| 20260901055526 | 74 | 202 | 0.0 | 1.0 | 0.00 | 0.02 | 0.00 | 91 | 1018.3 |
| 20260901054757 | 74 | 217 | 0.0 | 0.0 | 0.00 | 0.02 | 0.00 | 91 | 1018.3 |
| 20260901054031 | 74 | 198 | 0.0 | 0.0 | 0.00 | 0.02 | 0.00 | 92 | 1018.5 |
| 20260901053524 | 74 | 208 | 0.0 | 0.0 | 0.00 | 0.02 | 0.00 | 92 | 1018.6 |
| 20260901053024 | 74 | 209 | 0.0 | 0.0 | 0.00 | 0.02 | 0.00 | 92 | 1018.7 |
| 20260901052455 | 74 | 209 | 0.0 | 0.0 | 0.00 | 0.02 | 0.00 | 92 | 1018.6 |
| 20260901051951 | 74 | 209 | 0.0 | 0.0 | 0.00 | 0.02 | 0.00 | 92 | 1018.4 |
| 20260901051420 | 74 | 184 | 0.0 | 0.0 | 0.00 | 0.02 | 0.00 | 92 | 1018.6 |
| 20260901051136 | 74 | 184 | 0.0 | 0.0 | 0.00 | 0.04 | 0.00 | 92 | 1018.6 |
| 20260901050637 | 74 | 184 | 0.0 | 0.0 | 0.00 | 0.18 | 0.00 | 92 | 1018.7 |
| 20260901045845 | 74 | 184 | 0.0 | 0.0 | 0.00 | 0.54 | 0.00 | 92 | 1018.9 |
| 20260901045339 | 74 | 184 | 0.0 | 0.0 | 0.00 | 0.59 | 0.00 | 92 | 1018.9 |
| 20260901044816 | 74 | 184 | 0.0 | 0.0 | 0.00 | 0.59 | 0.00 | 92 | 1019.1 |
| 20260901044311 | 74 | 184 | 0.0 | 0.0 | 0.00 | 0.59 | 0.00 | 91 | 1018.9 |
| 20260901043805 | 74 | 184 | 0.0 | 0.0 | 0.00 | 0.59 | 0.00 | 91 | 1018.9 |
| 20260901043507 | 74 | 184 | 0.0 | 0.0 | 0.00 | 0.59 | 0.00 | 91 | 1019.0 |
| 20260901043456 | 74 | 184 | 0.0 | 0.0 | 0.00 | 0.59 | 0.00 | 91 | 1018.8 |
| 20260901042255 | 74 | 184 | 0.0 | 0.0 | 0.00 | 0.59 | 0.00 | 91 | 1019.1 |
| 20260901041728 | 74 | 184 | 0.0 | 0.0 | 0.00 | 0.59 | 0.00 | 91 | 1019.0 |
| 20260901041200 | 74 | 184 | 0.0 | 0.0 | 0.00 | 0.59 | 0.00 | 91 | 1019.2 |
| 20260901040655 | 74 | 184 | 0.0 | 0.0 | 0.00 | 0.59 | 0.00 | 91 | 1019.2 |
| 20260901040154 | 74 | 184 | 0.0 | 0.0 | 0.00 | 0.60 | 0.00 | 91 | 1019.1 |
| 20260901035652 | 74 | 184 | 0.0 | 0.0 | 0.00 | 0.60 | 0.60 | 91 | 1019.1 |
| 20260901035346 | 74 | 184 | 0.0 | 0.0 | 0.00 | 0.60 | 0.60 | 91 | 1019.1 |
| 20260901034624 | 74 | 184 | 0.0 | 0.0 | 0.00 | 0.60 | 0.60 | 91 | 1019.1 |
| 20260901034057 | 74 | 184 | 0.0 | 0.0 | 0.00 | 0.60 | 0.60 | 91 | 1019.1 |
| 20260901033819 | 74 | 184 | 0.0 | 0.0 | 0.00 | 0.60 | 0.60 | 91 | 1019.1 |
| 20260901033027 | 74 | 184 | 0.0 | 0.0 | 0.00 | 0.60 | 0.60 | 91 | 1018.9 |
| 20260901032501 | 74 | 233 | 0.0 | 0.0 | 0.00 | 0.61 | 0.60 | 90 | 1019.0 |
| 20260901032222 | 74 | 237 | 0.0 | 0.0 | 0.00 | 0.66 | 0.60 | 90 | 1019.1 |
| 20260901031650 | 75 | 240 | 0.0 | 0.0 | 0.00 | 0.77 | 0.60 | 90 | 1019.2 |
| 20260901031131 | 75 | 240 | 0.0 | 0.0 | 0.00 | 1.02 | 0.60 | 90 | 1019.1 |
| 20260901030602 | 75 | 240 | 0.0 | 0.0 | 0.00 | 1.14 | 0.60 | 90 | 1019.2 |
| 20260901025835 | 75 | 240 | 0.0 | 0.0 | 0.00 | 1.16 | 0.60 | 90 | 1019.2 |
| 20260901025313 | 75 | 236 | 0.0 | 0.0 | 0.00 | 1.20 | 0.60 | 90 | 1019.2 |
| 20260901024749 | 75 | 226 | 0.0 | 0.0 | 0.00 | 1.21 | 0.60 | 89 | 1019.2 |
| 20260901024249 | 75 | 168 | 0.0 | 1.0 | 0.00 | 1.21 | 0.60 | 89 | 1019.1 |
| 20260901023727 | 75 | 168 | 0.0 | 2.0 | 0.00 | 1.21 | 0.60 | 89 | 1019.1 |
| 20260901023226 | 75 | 164 | 0.0 | 2.0 | 0.00 | 1.21 | 0.60 | 89 | 1019.3 |
| 20260901022703 | 75 | 183 | 0.0 | 2.0 | 0.00 | 1.21 | 0.60 | 89 | 1019.3 |